NOAA 16 DEB, 42363

Orbit data source: Space-Track

NOAA 16 DEB, 42363 is space debris in SSO originally from a launch on Thu, 21 Sep 2000 UTC launched from the Air Force Western Test Range (AFWTR). Debris objects in space refer to the collection of defunct objects orbiting the Earth. Examples of debris include non-operational satellites, rocket bodies, and fragments generated from explosions, collisions, or faulty payload assembly.

Loading next visibility...
Identifier
42363, 2000-055RF
Orbit
SSO
Country
Flag of USUS
Related business
Manufacturer
Unknown
Mission
Spacecraft
Bus & Motor
Unknown
Mass
Unknown
Launch date (UTC)
2000-09-21 (25 years ago)
Launch vehicle
Unknown
Launch site
Air Force Western Test Range (AFWTR)
Object type
Payload
Rocket body
Debris
Shape & HBR
Unknown shape, 0.1 m
Radar Cross Section
Small (<0.1 m²)

Expand to show TLE details & history
Last TLE update: 4 days ago

TLE from 4 days ago
0 NOAA 16 DEB
1 42363U 00055RF  25283.73269852  .00004739  00000-0  25489-2 0  9993
2 42363  98.7949 284.7885 0064539  19.8634 340.5029 14.12251311493185
Epoch: 2025-10-10T17:35Z
TLE epoch observation values (Epoch: 2025-10-10T17:35:05.152Z)
Latitude
-0.00005°
Longitude
1.44273°
Altitude
810.619 km
Speed
7.471 km/s
True Right ascension
18h 59m 09s
True Declination
0° 00' 00"
Sunlit
Object was in daylight at epoch
Visualization orbit readout
Latitude
Unknown
Longitude
Unknown
Altitude
Unknown
Speed
Unknown
Apparent Right ascension
Unknown
Apparent Declination
Unknown
Sunlit
N/A
Visualization observer readout
Local Sidereal Time
08:50:48
Azimuth
Unknown
Elevation
Unknown
Doppler factor
Unknown
Orbital elements
Apogee altitude
895.493 km
Perigee altitude
802.209 km
Semi-major axis
7,226.988 km
Eccentricity
0.00645
Inclination
98.7949°
RAAN
284.7885°
Arg. of periapsis
19.8634°
True anomaly
340.25417°
Mean anomaly
340.5029°
Eccentric anomaly
340.37873°
Mean motion
3.5327 °/min
Orbital period
101.9 mins
BSTAR
0.0025489
Loading maneuver chart data...
Computing Atmospheric mass density...
Loading historical data...
Loading historical data...
Loading historical data...
Loading historical data...
Loading historical data...
Loading historical data...
Loading historical data...

Documentation

Showing up to 5 results
|